CAPE
1748 1700 2209 2414 2514 2528 2662 2685 2608 2670 2616 2516 2535 2278 2126 1829 2078 2251 2342 1996 1890 1717 1477 1004 820 584 235 232 207 210 123 183 248 267 290 413 536 2782 2918 2828 2384 2154 2184 2190 2186 2029 1968 1936 2089 1920 1918 1808 1907 1843 1802 1714 1481 1454 1795 1449 1602 1821 1852 1667 1790 1740 1806 1808 1747 1634 1635 1711 1686 1327 1365 1405 1476 1353 1478 1506 1508 1399 1148 1295 1316
1714 2198 2233 2476 2560 2576 2634 2730 2791 2653 2616 2839 2792 2364 2074 1891 2257 2158 2330 2512 1750 2216 2158 1471 705 538 284 207 117 26 54 143 136 116 285 197 479 2532 2860 2819 2328 2144 1944 2048 2219 2299 2042 1769 1860 2128 2072 1922 1856 1976 1964 1710 1354 1390 1600 1375 1683 1437 1302 1620 1646 1693 1881 1943 1661 1747 1805 1858 1739 1708 1293 1137 1113 1495 1560 1409 1465 1438 1229 1378 1458
2317 2108 2263 2328 2446 2629 2756 2886 2631 2558 2757 2517 2664 2746 2341 2660 2749 2389 2550 2268 2533 2079 1931 1590 793 403 460 256 85 58 84 110 76 94 149 138 222 918 2548 2965 2611 2451 2212 2155 2322 2028 2080 2046 1742 1941 1852 1812 1594 1659 1876 1958 1884 1734 1857 1689 1662 1932 1738 1373 1196 1491 1759 1971 1872 1969 1726 1926 1852 1833 1618 1467 1696 1556 1640 1649 1657 1680 1620 1592 1657
2633 2380 2317 2410 2661 2846 2828 2832 2761 2696 2713 2758 3045 2989 2666 2859 2892 3032 2589 2405 2502 2441 1960 1395 866 388 503 252 350 76 58 65 47 52 71 124 318 598 1222 2460 2967 2641 2563 2382 2207 1983 2221 2100 1815 1858 1789 1876 1637 1649 1852 1808 1748 1888 1837 1792 1717 1582 1554 1482 2159 1893 1377 1458 1727 1767 1730 1296 1659 1701 1576 1659 1754 1843 1851 1910 1907 1789 1636 1631 1736
2769 2275 2014 2221 2706 3121 3030 2866 2872 2744 2726 3414 3342 3134 2497 2328 2855 2822 2780 2786 2394 2031 2214 1320 773 493 445 373 217 149 44 22 49 62 27 107 189 258 723 1325 2154 2700 2678 2526 2246 2237 2187 2169 1946 2044 2032 1648 1658 1590 1587 1934 1908 1808 1884 1815 1823 1790 1976 1920 2054 2056 2028 1921 1644 1709 1729 1554 1632 1232 1424 1633 1689 1932 2020 1992 2006 1838 1716 1718 1515
2737 2690 2171 2198 2753 3023 2981 2824 2845 3162 3138 3330 2971 2588 2101 2220 2110 2286 2206 2287 2032 2471 2075 1874 934 583 509 464 316 138 31 18 23 62 53 116 170 394 748 1288 1773 2507 2741 2495 2447 2504 2473 2119 2154 2138 1826 1793 1994 1822 1803 1704 1869 1808 1677 1698 1935 1782 1991 2061 2021 2125 2232 2090 1976 1712 1772 1504 1637 1723 1798 1853 1800 1914 1955 1948 1834 1780 1759 1676 1669
2790 2430 2136 2131 2644 2900 2903 3002 2948 3241 3036 3154 3032 2457 2356 1942 2128 2331 2514 2353 2406 1837 1860 1735 986 460 595 366 336 115 158 72 28 161 95 208 194 284 972 1192 2166 2572 2437 2120 1960 2501 2472 2368 2290 2144 2001 2045 2007 2039 1996 1714 1886 1791 1584 1720 1928 1750 1903 2077 1877 2178 2090 2186 1972 1724 1431 1406 1528 1544 1193 1330 1413 1521 1720 1921 1972 1866 1992 1954 1972
2724 2605 2250 2082 2680 2974 3003 3386 3784 3221 3314 3256 3244 2560 2962 2594 2042 2046 2242 2408 2456 2127 2159 1532 838 692 616 400 370 206 166 102 129 83 84 147 147 485 1043 1324 1968 2055 1270 1899 1958 2770 2391 2412 2419 2328 2212 2172 2142 1794 1671 1712 1801 1702 1721 1769 1861 1628 1758 2002 2142 1969 2105 1886 2003 1614 1524 1306 1272 1241 1292 1387 1171 1296 1385 1728 1705 1934 2015 1985 2043
2720 2739 2394 1993 2421 2982 3178 3272 3852 3240 3422 3521 3019 2654 2658 2431 2967 2545 2236 2462 2392 2182 2139 1885 658 330 476 411 295 185 122 210 126 191 320 284 188 302 477 1184 1656 1861 2701 2124 2012 2299 2596 2607 2562 2643 2490 2311 2228 1899 1812 1720 1658 1712 1564 1682 1855 1836 1800 1912 2129 2169 1898 1881 1690 1432 1482 1421 1334 1288 1330 1264 1086 1042 1129 1420 1650 1535 1539 1644 1760
2645 2704 2501 2020 2168 2874 3056 3622 3582 3567 3552 3289 3055 2855 2864 2758 2688 3187 2739 2784 2304 2293 1959 1015 794 514 400 354 382 202 171 177 133 278 307 327 373 511 580 440 900 868 1095 1152 1611 1106 1932 2665 2886 2602 2560 2527 2357 2295 1924 1694 1668 1514 1702 1749 1748 1777 1776 1675 1766 1842 1715 1651 1422 1458 1300 1324 1216 1203 995 992 1007 1023 1267 1546 1625 1485 1368 1439 1496
2606 2708 2574 2060 1860 2639 3256 3670 3580 3608 3635 3221 3018 3054 3062 3069 2994 2897 3374 3075 2836 2677 2548 1201 1124 854 415 392 414 349 318 222 129 180 252 189 298 233 180 384 310 597 458 937 1033 1962 1726 2336 2348 1607 2244 2630 2535 2480 2271 2230 2118 1827 1667 1766 1534 1617 1747 1716 1722 1652 1580 1102 912 1149 1196 1184 1238 1250 1115 844 894 984 1054 1537 1626 1604 1463 1427 1397
2687 2618 2644 2286 2496 3085 3397 3871 3658 3570 3514 3380 3006 2902 3541 3947 3810 3364 3612 2915 2710 2795 1928 1142 814 736 547 392 388 408 288 217 69 117 220 319 282 336 126 174 223 300 311 306 269 609 1120 1748 1962 2080 1870 2300 2698 2338 1788 2207 1921 1886 1849 1592 1563 1762 1715 1573 1388 1641 1513 1326 1360 1225 1145 1163 1223 1181 1118 1124 1113 1278 1124 1230 1535 1616 1533 1404 1498
2595 2790 2762 3092 3280 3511 3745 4075 3740 3496 3594 3480 3240 3471 3514 3488 3577 3506 3130 3016 2664 2762 1636 977 889 691 678 469 402 439 312 191 111 56 100 126 154 256 160 139 140 221 164 139 224 243 317 570 900 1422 2018 2538 2492 2216 2364 2340 2198 1968 2113 2119 1984 1912 1922 1807 1589 1492 1274 1229 1298 1267 1116 1133 1166 1106 1065 1156 1194 1210 1391 1400 1136 1338 1566 1459 1363
2658 2968 3371 4035 3905 3627 4014 4289 4181 3562 3792 3851 3853 3850 3634 3253 2616 2465 2598 2518 1941 1294 1093 1073 908 530 387 245 221 203 317 172 13 16 76 43 70 150 196 86 60 91 118 202 131 210 191 403 733 836 984 895 1393 2579 2740 2801 2546 2012 2127 1751 1734 1788 1727 1808 1404 1287 1282 1154 1154 1238 1023 1234 1256 1144 1154 1204 1194 1216 1268 1200 1034 1370 1455 1445 1514
2842 3153 4004 4174 3960 3949 3957 4119 4186 3641 3972 4126 4123 4323 3911 3454 2838 2079 1913 1971 1678 1443 1632 1360 514 280 354 274 76 104 344 14 8 42 16 36 19 53 117 74 195 248 81 57 3 30 113 444 970 1119 1186 786 664 448 870 1663 2130 2042 1890 1881 2063 1862 1782 1961 1660 1543 1547 1395 1394 1274 1104 1018 1079 1118 1041 1124 997 970 1017 1060 1082 962 1294 1286 1314
2716 3263 3743 4023 4288 3947 3732 3665 4384 4160 4173 4083 4142 3996 4124 3038 2342 2045 2108 1853 1445 1223 1131 1424 797 487 346 83 118 1 130 62 24 40 19 9 11 9 138 161 161 203 36 64 0 50 88 445 1121 1161 1066 1125 686 643 608 1152 1909 1448 786 692 1407 1715 2029 1896 1948 1795 1829 1718 1616 1554 1450 1328 1308 1218 1364 1375 1345 1313 1351 1351 1306 1148 1116 1060 1183
2662 3554 3624 4015 4287 4107 3918 3666 3882 4313 3831 3893 4098 3642 3703 3168 2316 2316 2256 1809 1181 1183 1144 1022 1064 600 102 0 0 0 39 51 20 109 4 0 0 12 98 104 77 268 131 75 1 50 46 259 730 971 1269 993 763 617 490 648 673 268 325 85 829 1108 1550 1775 1625 1645 1147 688 1073 1153 1203 1076 944 971 740 758 618 788 957 1119 1241 1145 957 916 928
2801 3520 3726 3745 4440 4122 4222 3710 3736 3943 4133 3804 3714 3638 3506 3109 2223 2227 2052 2125 1890 1011 718 987 515 782 720 193 1064 392 45 120 25 217 56 22 70 32 109 111 72 216 237 122 56 3 2 92 421 510 571 499 373 288 318 1 8 63 11 0 483 191 900 1196 753 179 126 483 199 223 371 303 348 158 206 242 188 263 401 426 497 269 392 394 366
2599 3078 3327 3524 3788 4135 4147 4163 3575 3720 4092 4051 3870 3074 2808 2717 2387 2318 2084 2096 1974 1619 774 533 859 602 442 81 27 51 154 268 52 212 103 99 42 25 52 101 87 78 119 53 19 2 30 61 80 113 364 254 190 78 99 18 146 68 582 756 686 106 54 426 688 64 15 72 396 308 151 268 86 180 140 315 168 81 144 165 157 250 135 220 205
2533 2793 3207 3206 3372 3620 4139 4089 3859 3752 3859 3736 3211 2900 2515 2461 2404 2499 2328 2336 2001 1412 840 279 637 594 222 57 109 245 471 214 307 115 101 160 72 6 29 35 93 86 58 13 11 12 51 110 105 102 145 289 216 109 134 158 210 163 127 916 608 715 128 151 414 454 567 181 114 165 174 194 190 169 108 66 7 32 15 60 52 77 118 122 120
3028 2783 3214 3331 3119 3303 3592 3804 3878 3924 3736 3179 2790 2634 2642 2646 2728 2616 2510 2263 2139 1554 1045 802 554 432 153 230 176 278 110 98 288 324 221 46 49 93 83 44 27 58 83 24 3 44 39 34 98 103 133 198 200 166 117 119 181 214 258 554 906 684 806 236 92 0 45 107 142 27 35 94 154 94 184 70 70 163 147 139 137 168 225 267 199
3485 3221 3322 3493 3146 3272 3340 3673 3734 3284 3104 2705 2720 2613 2653 2751 2757 2749 2485 2315 1951 1593 1076 1080 567 168 342 335 332 228 173 118 109 148 147 225 88 27 26 91 116 72 67 69 47 33 21 43 47 47 54 61 92 116 103 103 175 95 906 1162 1265 1142 896 936 668 111 3 79 134 12 16 32 22 50 35 39 52 60 104 127 136 139 154 148 105
2652 3111 3462 3445 3241 3291 3213 3218 3488 3101 2859 2878 2931 2630 2579 2681 2637 2784 2635 2294 1953 1571 1343 1134 630 210 532 457 453 311 361 195 160 12 41 140 128 24 20 21 6 52 173 64 79 56 69 85 34 9 120 70 66 68 73 75 94 1044 1377 1074 1352 1370 1107 998 924 600 359 62 3 11 0 6 10 18 20 33 13 16 12 17 29 41 31 25 18
3125 2656 3221 3036 3170 3312 3321 3193 3226 3104 2872 2898 2855 2698 2679 2602 2637 2798 2657 2326 2082 1460 1236 1172 447 418 345 355 329 230 214 150 126 216 202 212 137 122 61 164 77 35 166 236 118 61 60 71 35 28 51 65 71 79 73 136 108 1515 1351 1279 1111 1282 1283 1174 1090 1075 939 912 567 142 83 3 0 0 3 50 23 4 2 0 0 9 34 61 117
3304 3010 2966 3394 3210 3699 3590 3390 3331 3187 3175 2898 2877 2924 2918 2664 2666 2693 2628 2408 2003 1581 1607 1107 490 367 103 286 360 135 170 134 1 35 159 140 259 177 191 84 127 72 102 84 117 87 72 27 36 29 28 71 51 148 116 64 32 1296 1547 1071 1024 1407 1031 1189 1049 804 819 796 910 852 586 488 139 84 118 25 0 2 0 0 0 0 101 218 371
3084 3375 2934 3241 3170 3788 3866 3429 3532 3562 3382 3122 3177 3077 3050 3004 2933 3042 2601 2346 2028 1852 1689 905 583 429 344 383 331 257 270 226 84 0 78 51 18 27 164 112 28 34 112 186 152 33 28 3 0 6 37 32 23 87 118 12 37 1552 1254 628 1238 814 992 957 1043 862 644 670 640 690 653 578 568 535 478 457 369 403 434 451 507 456 388 412 458
2958 3302 3408 3404 3652 3834 3904 3612 3479 3325 3113 3069 3034 2976 3232 3153 3099 3104 2685 2199 2033 1684 1436 762 454 368 330 423 535 376 239 476 222 136 13 89 96 129 175 316 48 2 24 107 85 39 0 55 10 16 76 185 76 76 111 38 3 1567 1251 742 142 1021 808 691 916 680 594 518 501 585 555 598 576 560 397 501 482 559 576 405 416 499 491 546 546
3316 3298 3801 3668 3879 3974 4075 3868 3635 3133 2975 2996 2799 2720 3221 3134 3166 3052 2859 2309 1938 1798 1338 622 433 545 461 532 441 161 291 327 229 173 116 120 166 236 373 191 177 158 67 64 84 82 20 8 38 36 139 226 231 136 216 188 36 1384 664 163 267 663 607 684 526 535 418 225 233 395 435 394 424 433 512 497 653 649 681 688 716 827 866 866 832
3395 3542 3835 4011 4006 4063 3860 3550 3701 3492 3025 2836 2729 2840 3067 3123 2906 3144 2864 2064 1961 1791 1144 624 484 506 387 458 573 387 387 446 367 255 358 354 292 301 313 204 291 108 243 159 206 17 48 1 23 562 279 449 685 256 482 632 191 491 429 418 476 911 1439 299 276 325 234 196 164 133 176 120 182 318 437 565 584 668 650 660 676 710 793 772 825
3067 3360 3690 4190 4322 4182 3904 3724 3338 3462 3139 2837 2810 2783 3134 3080 3052 3122 2780 2375 1962 1833 1358 769 677 535 580 572 579 532 418 623 546 193 422 633 439 347 291 172 206 337 214 125 186 132 59 50 0 265 629 623 595 610 374 492 529 451 265 514 482 541 542 151 65 54 66 67 43 30 32 55 66 99 200 285 324 379 447 482 583 590 652 671 712
3189 3380 3757 3930 4067 4221 4082 3849 3596 3528 3551 3132 3010 2913 3071 3063 2806 2897 2885 2821 2370 1890 1695 1086 906 742 775 821 921 792 818 859 597 272 345 684 527 352 270 251 308 230 278 233 149 139 76 75 76 46 281 642 206 215 458 467 586 91 339 653 660 748 24 467 0 7 8 8 21 18 21 20 18 21 44 111 144 348 418 574 598 718 819 818 772
3174 3420 3595 3459 3798 3925 3994 3413 3267 3315 3574 3393 3259 3111 2966 2950 2708 2141 2366 2726 2396 2026 1931 1324 1063 1009 1053 967 1030 1090 936 956 694 415 572 656 496 484 352 322 417 405 297 205 175 210 463 88 104 268 159 390 471 233 245 235 809 65 216 384 1039 279 130 182 86 31 13 30 31 36 15 10 6 8 24 63 174 266 396 582 644 654 435 379 412
3227 3346 3567 3564 3540 3883 3646 3682 3314 3255 3623 3538 3230 3158 3090 3002 2823 2843 2710 2327 2448 2167 2098 1591 1244 1060 1268 1034 981 1120 1036 1036 873 553 455 621 480 409 528 561 394 400 281 315 261 301 327 371 267 117 212 209 388 532 382 234 446 492 54 187 604 517 245 234 640 329 98 23 34 19 7 2 0 1 10 40 119 190 374 440 376 192 100 132 150
3225 3243 3678 3672 3542 3761 3631 3743 3669 3481 3756 3784 3382 3312 3334 3250 3136 2911 2832 2425 2448 2425 2258 1807 1646 1313 1424 1232 925 1108 1141 1063 991 734 537 511 473 363 428 428 411 470 396 392 318 290 332 680 717 315 145 306 132 493 415 290 206 382 668 481 688 538 406 319 208 683 327 137 56 4 0 0 0 0 0 3 28 130 151 170 94 6 0 4 0
3308 3295 3488 3539 3756 3818 3809 3700 3889 3675 3846 3779 3540 3491 3491 3422 3314 3108 2925 2785 2647 2654 2423 2013 1844 1653 1466 1398 1075 1096 1116 1121 1078 878 693 602 544 392 370 457 435 362 568 487 366 424 474 469 508 483 474 448 420 302 432 408 312 320 365 487 594 725 743 569 333 265 517 160 73 8 0 0 0 0 0 0 5 17 19 3 0 0 0 0 0
3120 3400 3337 3488 3770 3987 4066 3878 4008 4005 4076 3861 3541 3450 3632 3624 3559 3571 3528 3413 3101 2972 2526 2168 1931 1843 1626 1478 1000 876 1115 1189 1220 1046 866 763 658 580 481 541 582 449 462 768 616 325 298 370 527 548 312 389 386 480 395 465 392 340 373 375 550 625 545 648 670 536 505 108 166 54 0 0 0 0 0 0 0 0 0 0 0 0 0 0 0
2843 3330 3386 3490 3767 4113 4105 4050 4077 4170 4123 4026 3700 3409 3596 3629 3775 3932 4018 3803 3568 3311 2732 2358 1993 2075 1898 1510 1157 916 1258 1387 1368 1132 992 1001 881 763 628 514 641 573 462 532 783 587 348 370 446 507 591 476 444 423 424 434 428 466 498 566 478 629 732 536 417 354 436 168 116 11 0 0 0 0 0 0 0 0 0 0 0 0 0 0 0
2899 2909 3426 3443 3554 3985 4216 4207 4173 4326 4323 4230 3939 3739 3602 3637 3828 3756 3916 3844 3570 3421 3078 2587 2351 2212 2184 1805 1388 1211 1205 1521 1425 1223 1187 1106 1130 930 796 656 676 703 571 549 756 736 624 463 485 458 554 537 487 467 462 449 366 327 471 780 1054 999 749 686 494 308 385 317 632 879 506 222 52 0 0 0 0 0 0 0 0 0 0 0 0
2964 2796 2988 3489 3536 3785 4210 4267 4161 4316 4399 4337 4379 4277 3897 3755 3936 3910 3599 3868 3659 3517 3292 2822 2498 2353 2218 2076 1743 1468 1486 1594 1525 1292 1380 1321 1358 1174 998 925 799 788 657 540 829 694 631 634 488 489 468 398 397 427 357 526 476 359 325 325 480 870 1406 1236 915 602 530 482 573 347 195 246 219 282 8 0 0 0 0 0 0 0 0 0 0
2920 2810 2805 3196 3573 3643 4083 4232 4182 4248 4392 4333 4414 4475 4358 3943 3819 4041 3794 3744 3730 3585 3431 3116 2771 2468 2441 2291 1969 1778 1683 1771 1689 1366 1421 1544 1577 1397 1122 1057 938 941 760 548 580 583 696 566 506 371 426 410 405 403 246 686 724 544 532 400 386 437 559 1052 1401 820 719 634 624 369 436 313 216 178 114 117 119 133 108 1 16 6 0 0 0
3031 2895 2858 2930 3455 3730 3875 4102 4112 4090 4126 4228 4215 4358 4378 4159 3794 3785 3902 3735 3713 3635 3510 3259 3024 2733 2622 2511 2258 2024 2022 1824 1528 1400 1197 1458 1775 1487 1376 1338 1146 986 846 488 627 621 533 615 586 496 451 431 378 316 322 356 565 337 949 1135 733 519 441 406 558 1292 1052 641 552 413 826 930 914 942 890 1095 1101 718 610 473 316 190 18 0 0
3261 3122 3090 3085 3161 3598 3821 3990 4131 3984 3955 4036 3813 3561 3626 4001 3966 3743 3781 3837 3696 3555 3592 3439 3147 3003 2748 2576 2359 1837 1570 1468 1364 1188 967 1156 1287 1333 1621 1648 1366 1048 784 791 762 703 637 478 347 383 454 390 336 276 228 129 277 781 1062 1056 740 571 646 670 509 556 1224 845 366 609 928 834 774 944 478 512 523 322 258 168 180 174 37 0 0
3394 3377 3252 3151 3061 3275 3639 3818 3930 3883 3888 3884 3356 3182 3112 3136 3694 3972 3739 3828 3822 3643 3533 3585 3390 3122 2996 2800 2659 1973 1501 1264 1223 1027 796 904 906 803 1012 1434 1312 1168 962 967 874 715 630 546 410 277 401 367 302 188 99 128 115 372 890 476 472 332 219 39 83 139 926 943 708 400 370 487 529 420 427 325 217 196 156 65 8 0 0 0 0
3651 3467 3334 3275 3384 3181 3379 3688 3705 3866 3904 3328 3074 2938 2750 2637 2764 3584 3789 3711 3692 3622 3524 3478 3462 3290 3141 2945 2720 2598 2058 1728 1654 1263 883 800 684 567 657 813 859 952 1026 1019 932 818 739 646 479 482 406 191 407 278 210 156 65 169 346 207 404 470 126 67 64 68 497 638 704 336 199 256 151 167 210 205 140 198 96 82 0 0 0 0 0
3679 3718 3626 3531 3467 3392 3393 3637 3700 3677 3800 3292 2922 2716 2542 2354 2242 2483 3327 3663 3554 3503 3447 3470 3469 3455 3300 3074 2901 2658 2612 1536 1214 1610 1370 1027 949 894 873 934 1025 1056 1082 1122 1078 1367 797 663 441 318 356 403 396 347 273 191 156 100 62 72 133 149 102 120 97 63 265 120 156 96 36 21 29 60 161 169 94 45 6 13 0 0 0 0 0
3818 3944 3682 3661 3672 3705 3587 3627 3758 3805 3840 3266 2921 2579 2371 2202 2059 2011 2826 3212 3420 3290 3364 3339 3386 3411 3428 3287 3022 2818 2697 2049 1670 1677 1833 1511 1124 1047 1138 1201 1203 1169 1181 1229 1235 1083 896 736 562 469 411 622 578 469 294 461 394 238 74 75 49 60 107 129 162 184 114 21 27 15 0 3 11 23 18 33 1 0 0 231 0 0 0 0 0
3885 3899 3759 3740 3730 3782 3802 3641 3715 3808 3767 3278 3041 2702 2359 2118 1954 1842 2454 2791 3016 3124 3120 3062 3080 3265 3360 3314 3182 2989 2868 2642 1934 1669 1887 1856 1501 1233 1332 1390 1350 1285 1242 1242 1202 987 874 712 573 620 341 446 694 474 588 700 456 413 282 297 349 289 220 71 4 2 2 23 64 2 0 0 0 0 3 0 0 0 0 0 0 0 0 0 0
3778 3830 3879 3803 3905 3753 3624 3484 3626 3506 3682 3131 2992 2800 2514 2228 1968 1812 2132 2642 2858 3010 3002 2564 2547 2698 2899 3235 3292 3143 3043 2941 1914 1384 1588 1994 1888 1417 1474 1412 1294 1228 1204 1132 1059 912 960 620 411 346 332 860 1684 1406 1656 230 450 290 127 35 38 5 2 1 0 0 0 0 4 0 0 0 0 0 0 0 0 0 0 0 0 0 0 0 0
3758 3860 3722 3624 3589 3462 3440 3569 3258 3344 3620 3658 2937 2713 2559 2346 2110 1910 2012 2408 2738 2866 2781 2642 2576 2596 2575 2698 2958 3207 3172 3117 2201 1574 1523 1554 1917 1805 1572 1518 1458 1387 1254 1140 1011 795 601 462 421 384 303 205 37 0 0 2 1490 165 132 18 1 0 8 2 2 0 0 0 0 0 0 0 0 0 0 0 0 0 0 0 0 0 0 0 0
3789 3917 3888 3708 3763 3781 3734 3474 3243 3431 3526 3504 3026 2656 2482 2342 2197 2031 2167 2422 2654 2649 2514 2540 2509 2433 2377 2223 2213 2905 3131 3224 2206 1844 1643 1626 1756 1682 1719 1660 1550 1469 1316 1142 992 726 578 547 512 348 242 173 5 0 0 0 0 69 84 19 0 0 0 0 0 0 0 0 0 0 0 0 0 0 0 0 0 0 0 0 0 0 0 0 0
3910 3933 3862 3892 3892 3664 3372 3395 3134 3201 3521 3410 3065 2772 2545 2459 2300 2152 2340 2469 2581 2535 2310 2357 2470 2350 2486 2318 2060 2322 2643 2984 2282 1942 1704 1688 1725 1811 1798 1684 1453 1268 1167 985 863 811 682 522 358 281 188 0 26 60 0 0 0 0 0 8 0 0 0 0 0 0 0 0 2 0 0 0 0 0 0 0 0 0 0 0 0 0 0 0 0
Wind_Speed
11 12 12 12 11 12 12 11 11 11 10 11 10 10 8 4 9 4 11 8 11 7 8 12 12 11 11 8 7 7 7 8 7 7 6 7 7 10 12 10 8 8 9 9 9 10 10 8 9 9 7 6 5 6 4 1 5 3 2 5 6 8 10 11 11 14 15 16 14 14 13 13 12 12 11 10 9 9 9 8 8 7 7 4 4
10 11 11 11 12 12 11 11 11 10 11 10 9 9 7 7 2 4 9 7 7 5 7 13 13 9 10 8 7 nan nan 8 7 7 6 7 6 8 13 12 10 10 11 11 10 10 11 9 9 9 8 8 8 6 5 5 4 3 1 2 3 3 7 9 10 11 15 16 16 14 13 15 15 13 12 11 11 10 8 8 8 8 8 7 5
9 9 10 10 11 11 11 9 10 9 8 9 6 8 8 2 6 4 6 7 5 4 7 10 11 9 7 9 nan nan nan 6 nan nan 7 6 5 5 10 13 11 11 11 11 11 10 10 8 9 9 7 7 6 7 5 6 7 8 7 6 2 2 4 5 8 8 12 13 13 12 11 14 15 14 13 12 12 10 8 6 7 8 7 6 4
9 9 10 9 10 9 9 9 8 7 7 6 5 5 7 3 4 4 4 5 5 4 3 12 8 5 7 6 6 nan nan nan nan nan nan 2 5 5 7 10 12 11 10 11 11 11 9 9 9 7 7 8 7 7 8 9 11 10 9 9 9 6 4 1 6 6 6 8 9 11 14 12 12 12 13 14 13 11 9 6 6 6 7 5 4
8 9 9 9 9 9 10 8 8 7 6 4 5 6 6 6 4 4 3 3 3 3 5 9 6 3 6 4 6 4 nan nan nan nan nan 5 7 6 5 7 9 13 13 12 12 11 10 10 10 9 8 8 10 12 11 10 11 9 7 8 7 5 3 3 3 3 5 5 5 6 11 14 14 14 12 13 13 12 10 8 7 7 7 6 5
8 8 10 9 8 9 9 8 7 6 6 5 6 5 5 4 2 3 2 2 1 2 5 5 3 2 3 2 4 1 nan nan nan nan nan 6 5 6 7 7 8 9 10 14 13 12 12 11 11 10 9 8 9 13 12 11 12 10 8 5 6 6 5 6 7 6 6 5 4 4 5 4 9 10 10 10 10 10 10 9 8 8 7 6 6
8 8 9 9 9 8 7 7 5 5 5 4 4 4 4 4 2 2 1 2 1 1 3 5 3 2 1 1 2 1 1 nan nan 4 nan 5 7 8 6 7 11 9 10 12 12 14 13 12 12 12 12 10 11 10 9 9 10 9 8 8 7 7 7 7 7 8 9 9 9 10 10 6 4 6 8 8 8 10 9 9 10 10 9 8 7
8 8 9 9 8 7 6 5 4 6 4 4 5 5 4 4 2 2 1 2 1 2 2 1 1 1 0 1 3 3 4 5 4 nan nan 7 9 9 8 9 9 8 8 9 11 14 16 13 12 13 13 13 13 11 10 10 11 11 10 11 10 9 9 10 8 8 9 9 9 11 12 11 8 7 9 9 7 4 4 7 8 11 12 11 9
8 8 8 8 7 7 6 6 6 5 5 6 6 5 5 5 3 3 3 2 2 2 2 1 2 2 2 2 4 2 5 5 6 5 7 6 9 11 11 10 9 11 9 10 10 12 14 17 14 14 14 16 15 13 14 14 12 9 10 10 10 10 11 10 8 7 7 4 3 3 5 7 10 11 9 8 8 6 3 1 2 5 7 9 9
7 7 7 7 7 6 6 4 5 5 6 7 7 6 6 5 5 4 3 3 2 2 3 4 4 3 3 5 5 2 6 6 8 7 8 9 9 10 11 10 10 9 8 8 9 13 16 15 18 15 16 16 16 14 14 13 14 14 13 10 10 11 11 10 9 7 7 8 1 4 4 4 8 9 8 8 8 7 6 5 3 2 4 5 8
6 5 6 7 7 7 6 5 5 6 6 8 8 8 7 6 6 5 4 4 3 1 2 3 4 3 5 5 8 5 4 6 7 10 8 9 12 11 13 11 11 11 9 10 12 12 11 13 15 17 15 19 17 16 15 14 14 14 13 12 11 12 12 11 10 9 8 10 12 9 6 9 11 11 11 10 9 8 7 5 4 4 5 6 7
5 5 6 6 6 6 6 6 7 7 8 9 9 8 8 8 7 6 5 6 5 2 2 4 4 4 3 5 7 7 5 4 nan 8 11 12 13 10 12 13 10 9 10 11 11 13 13 13 13 12 16 17 17 17 15 15 15 14 15 14 14 12 11 10 8 9 10 9 12 12 11 10 10 8 9 9 9 9 8 7 5 5 7 8 10
4 5 6 6 6 6 7 7 8 9 9 10 10 10 9 9 8 7 8 8 7 5 4 5 4 6 6 5 7 7 8 7 5 nan 11 10 12 11 10 10 10 12 10 10 11 12 14 14 13 14 13 15 18 18 16 16 16 16 16 14 12 11 11 12 15 18 18 11 11 13 16 13 13 11 10 9 9 9 8 6 6 6 7 7 9
4 5 6 6 6 7 7 8 8 9 9 10 10 10 10 10 9 8 8 8 6 8 5 7 7 7 7 8 8 9 6 6 nan nan nan nan nan 10 8 nan nan nan 12 14 14 15 15 14 13 13 14 15 15 16 17 19 20 16 16 18 18 15 13 15 18 19 23 22 17 17 15 14 12 9 10 10 9 9 10 9 8 7 7 8 8
4 5 5 6 7 7 8 8 9 9 8 9 10 10 10 10 9 7 6 7 6 5 7 9 7 6 6 5 nan 8 11 nan nan nan nan nan nan nan 9 nan 10 10 nan nan nan nan 13 13 13 13 13 12 13 14 16 16 18 20 19 18 17 16 17 18 21 21 25 28 24 23 18 16 14 13 12 11 9 8 10 11 10 9 8 8 8
5 6 6 6 7 8 8 8 8 8 9 9 9 9 9 8 7 7 6 6 7 6 8 9 9 10 11 nan 8 nan 10 nan nan nan nan nan nan nan 11 9 12 10 nan nan nan nan nan 13 12 12 12 11 11 13 14 15 20 20 20 19 17 15 16 21 23 25 27 28 27 24 23 22 21 19 18 16 15 13 12 11 11 11 11 11 10
5 6 7 7 7 8 8 7 8 8 9 10 9 8 7 7 7 6 7 6 4 5 7 9 10 9 7 nan nan nan nan nan nan 8 nan nan nan nan nan 8 nan 10 8 nan nan nan nan 12 10 11 10 11 11 11 12 15 16 17 18 nan 17 16 15 19 23 25 27 28 28 26 25 23 23 23 22 22 21 20 19 18 18 17 16 15 15
4 5 7 8 8 8 8 7 8 8 9 9 8 6 7 7 6 6 6 6 4 5 8 8 10 12 10 9 4 3 nan 6 nan 10 nan nan nan nan 8 9 nan 8 7 10 nan nan nan nan 12 11 10 10 10 11 12 nan nan nan nan nan 15 16 16 17 19 22 24 27 28 28 26 25 23 23 24 24 25 24 23 22 20 19 18 17 17
4 5 6 8 9 8 8 7 8 8 8 8 8 8 6 5 4 5 5 4 6 6 8 11 10 11 12 nan nan nan 5 8 nan 8 10 nan nan nan nan 8 nan nan 8 nan nan nan nan nan nan 11 12 11 11 nan nan nan 13 nan 14 17 16 14 nan 14 14 nan nan nan 23 24 25 25 nan 23 23 22 23 nan 24 24 23 22 20 20 19
3 5 7 8 9 8 8 7 8 8 7 8 7 5 3 3 4 4 4 5 7 8 11 11 13 11 12 nan 12 9 7 6 6 7 6 11 nan nan nan nan nan nan nan nan nan nan nan 12 13 13 13 12 12 12 12 14 15 16 17 16 16 16 15 14 13 13 15 18 19 19 20 21 22 22 23 nan nan nan nan nan nan nan 23 22 22
4 5 7 8 9 9 9 8 7 7 7 8 7 5 4 4 5 5 5 6 8 10 11 10 11 12 13 12 12 12 13 nan 9 8 9 nan nan nan nan nan nan nan nan nan nan nan nan nan nan 14 15 15 14 13 13 14 14 13 16 17 14 14 15 15 nan nan nan 16 17 nan nan nan 19 nan 21 nan nan 23 23 23 23 23 23 23 23
5 5 6 7 9 10 9 9 8 7 6 7 6 4 4 4 4 5 5 7 9 11 11 10 10 8 12 12 12 12 10 11 11 12 11 7 nan nan nan nan 8 nan nan nan nan nan nan nan nan nan nan nan nan 15 13 13 13 nan 16 19 16 15 15 16 17 17 nan nan 20 nan nan nan nan nan nan nan nan nan 23 23 23 22 23 23 23
4 5 6 7 8 10 10 10 8 6 6 6 6 4 4 5 4 4 6 8 9 10 11 10 9 9 10 11 12 14 14 14 13 nan nan 13 10 nan nan nan nan nan 11 nan nan nan nan nan nan nan 15 nan nan nan nan nan nan 15 20 19 19 18 18 19 20 20 21 nan nan nan nan nan nan nan nan nan nan nan nan nan nan nan nan nan nan
5 5 5 7 8 8 10 9 7 6 5 5 5 4 3 5 6 5 6 8 9 9 10 10 11 10 12 13 14 15 15 14 14 13 12 10 9 9 nan 5 nan nan 12 12 12 nan nan nan nan nan nan nan nan nan nan 14 16 22 18 23 20 20 21 20 21 21 21 22 22 22 nan nan nan nan nan nan nan nan nan nan nan nan nan nan 23
7 5 6 7 7 7 9 9 7 5 4 4 4 4 4 5 7 7 6 8 9 10 9 10 11 11 13 13 14 15 15 16 nan nan 15 14 12 11 10 nan 10 nan 12 nan 13 nan nan nan nan nan nan nan nan 13 13 nan nan 22 19 21 23 22 21 21 20 20 20 21 21 22 22 22 22 nan 25 nan nan nan nan nan nan nan 21 22 23
8 6 5 6 6 7 9 9 8 6 5 4 4 4 5 5 7 7 7 7 7 9 9 9 10 12 12 12 14 14 14 16 nan nan nan nan nan nan 12 10 nan nan 14 13 13 nan nan nan nan nan nan nan nan nan 15 nan nan 26 22 15 24 24 23 22 23 22 22 22 22 22 22 21 21 22 23 24 25 25 25 24 24 22 21 21 22
8 7 6 6 6 7 8 9 10 8 6 5 4 4 5 6 7 8 6 5 7 8 8 10 10 13 14 13 12 13 14 14 14 16 nan nan nan 14 13 13 nan nan nan 15 nan nan nan nan nan nan nan 15 nan nan 15 nan nan 27 22 17 15 27 24 26 24 25 24 24 24 23 23 22 22 22 23 23 24 25 25 25 24 24 24 23 23
10 8 7 7 7 7 8 9 10 10 7 6 5 4 6 7 8 8 7 5 6 8 8 10 12 15 16 16 15 14 15 14 13 14 14 13 14 13 14 12 11 13 nan nan nan nan nan nan nan nan 16 16 15 15 15 16 nan 28 22 16 17 21 29 27 27 26 27 26 26 25 25 24 23 23 23 24 25 25 26 26 25 25 25 25 25
11 10 9 9 9 8 7 8 10 10 9 7 6 5 6 7 8 8 8 6 5 7 8 10 13 17 18 20 18 16 14 14 13 13 14 15 15 14 14 14 14 11 13 14 15 nan nan nan nan 20 17 17 16 15 17 17 20 23 20 20 22 21 32 29 28 28 27 28 27 27 27 26 26 25 25 25 26 27 27 27 27 27 27 27 27
11 11 10 10 10 10 8 8 9 11 10 9 7 6 7 8 9 9 8 6 5 5 8 9 13 15 18 19 19 18 17 17 17 17 17 17 15 14 14 14 14 14 14 13 14 15 nan nan nan 19 19 18 17 17 18 19 27 22 22 23 24 27 36 32 nan nan nan nan nan nan nan nan nan nan 27 27 28 28 29 29 29 29 28 28 28
12 12 12 11 11 11 10 9 10 12 12 10 9 8 7 8 9 9 9 8 5 5 7 9 11 15 17 18 18 18 18 19 18 19 19 19 16 13 13 14 15 16 15 15 14 15 nan nan nan nan 18 19 16 19 20 21 27 nan 25 27 27 36 nan 36 nan nan nan nan nan nan nan nan nan nan nan 28 28 29 29 30 31 31 31 31 31
13 13 12 11 11 12 12 10 10 12 13 13 11 10 9 9 10 9 10 11 7 6 7 9 10 14 17 18 19 19 19 19 20 20 20 19 17 15 14 14 15 16 17 16 16 15 17 nan 15 18 15 17 18 17 18 20 28 nan 24 26 32 36 33 34 nan nan nan nan nan nan nan nan nan nan nan nan 30 29 29 30 31 32 32 33 34
16 15 13 12 12 12 12 11 11 12 13 14 13 11 10 11 11 10 10 12 9 6 7 9 11 13 17 19 20 21 21 21 20 21 22 22 20 18 16 16 16 17 17 18 17 17 16 16 14 13 17 15 18 18 18 19 24 26 nan 27 30 31 32 32 38 45 nan nan nan nan nan nan nan nan nan nan 33 32 32 32 32 33 34 34 35
19 17 15 13 13 13 12 12 12 12 14 14 14 13 12 12 13 13 11 12 11 8 9 10 12 12 16 19 21 22 22 21 21 22 22 22 22 20 20 19 18 18 19 18 18 16 16 20 17 16 16 19 16 20 19 20 23 27 27 28 30 31 32 34 34 40 48 47 nan nan nan nan nan nan nan nan nan 37 37 35 nan nan nan nan nan
21 19 17 15 14 14 14 13 13 13 14 15 14 13 13 14 14 14 14 14 13 11 11 12 13 14 16 18 21 21 20 21 21 21 22 22 21 21 22 21 21 20 21 20 18 18 18 17 19 19 20 20 18 20 23 23 23 26 28 30 32 34 34 33 34 34 51 48 nan nan nan nan nan nan nan nan nan nan nan nan nan nan nan nan nan
21 20 18 17 16 16 16 15 14 14 15 15 14 13 14 14 15 15 15 16 15 14 12 12 13 15 17 18 20 21 20 20 20 21 21 21 22 23 23 22 22 21 21 21 21 19 18 18 21 20 20 21 22 22 23 25 25 28 29 30 32 33 34 37 37 35 45 50 51 nan nan nan nan nan nan nan nan nan nan nan nan nan nan nan nan
20 21 20 19 17 17 17 16 15 15 15 15 15 14 14 15 15 16 17 18 17 16 14 13 14 15 17 18 20 20 20 20 20 22 22 23 24 25 24 23 23 23 22 21 21 22 21 21 21 23 24 24 24 24 26 26 28 29 30 31 33 34 36 36 36 37 47 52 51 nan nan nan nan nan nan nan nan nan nan nan nan nan nan nan nan
18 19 20 20 19 18 18 18 17 16 16 16 16 15 16 16 16 15 16 18 18 17 15 14 15 16 16 18 20 21 21 21 21 22 23 25 25 25 23 23 24 24 24 23 23 24 24 23 23 24 27 26 27 27 27 27 27 29 32 34 35 37 37 38 38 39 39 42 45 50 52 49 nan nan nan nan nan nan nan nan nan nan nan nan nan
15 15 16 18 19 19 19 19 18 18 18 17 17 17 17 17 16 16 16 19 19 18 17 16 15 16 17 18 19 21 22 22 21 22 24 25 24 23 23 23 24 25 26 25 25 25 25 25 25 26 26 28 29 28 30 30 30 30 31 34 36 38 39 39 40 42 43 44 48 50 45 41 45 47 nan nan nan nan nan nan nan nan nan nan nan
15 15 14 14 16 18 20 20 19 19 18 18 18 18 19 18 17 16 17 19 20 19 18 17 16 16 17 18 19 21 22 23 22 22 24 25 23 22 22 22 24 26 25 26 26 26 26 26 26 27 29 29 30 30 31 33 32 33 34 35 36 38 40 41 42 41 43 44 43 46 55 51 48 46 47 45 43 41 39 nan nan nan nan nan nan
12 15 16 14 13 13 15 17 18 19 18 18 19 20 20 19 18 17 18 19 20 20 19 19 18 17 17 17 17 19 23 24 26 23 24 25 23 22 21 23 25 26 25 25 27 27 27 27 28 29 30 31 31 32 34 35 34 34 36 38 38 38 38 40 42 45 45 45 45 45 44 43 41 40 40 37 38 42 39 39 33 35 nan nan nan
13 13 13 13 13 13 12 12 14 15 16 17 20 23 22 20 20 19 20 20 21 21 21 20 19 18 18 18 18 20 23 28 27 27 25 27 25 20 21 23 26 26 27 27 27 27 28 30 30 31 32 33 33 34 34 34 36 37 38 39 39 39 40 39 41 43 46 45 44 43 42 41 39 38 34 33 32 33 30 32 36 42 nan nan nan
14 14 14 14 13 12 13 11 11 10 10 13 21 25 24 23 21 21 21 21 22 23 21 21 21 20 19 19 18 22 24 27 29 30 27 27 28 22 20 24 26 28 29 28 27 28 30 31 32 33 33 34 34 33 nan 35 38 39 39 39 38 39 38 nan nan 45 49 46 44 41 39 37 36 33 32 31 31 31 31 nan nan nan nan nan nan
12 13 14 15 14 13 12 12 12 10 8 11 21 24 26 26 24 22 22 22 24 24 23 22 22 21 21 21 21 22 23 26 27 29 29 29 28 26 24 25 27 29 28 28 29 30 32 33 34 34 34 35 35 35 35 36 nan 40 39 39 40 38 38 nan nan nan 47 48 42 39 35 36 34 31 31 33 33 35 nan nan nan nan nan nan nan
10 11 12 13 14 14 13 14 13 12 9 15 20 24 26 27 26 22 21 22 24 25 24 24 23 23 23 23 24 23 24 31 30 28 29 30 28 28 27 27 27 29 30 27 24 25 30 35 35 35 36 35 36 36 36 36 38 38 nan nan 40 40 39 40 nan nan 46 45 41 nan nan nan nan nan 34 35 nan nan nan nan nan nan nan nan nan
10 11 12 13 12 12 12 13 13 13 11 18 22 24 26 27 27 24 20 22 24 25 24 24 25 24 25 25 26 26 26 31 30 30 30 31 31 29 27 28 29 30 30 31 31 30 29 31 35 37 37 37 37 38 39 41 41 40 nan nan nan nan 39 39 40 43 44 nan nan nan nan nan nan nan nan nan nan nan nan 51 nan nan nan nan nan
11 12 13 14 12 12 12 11 11 11 11 20 24 27 27 29 29 26 21 21 23 24 25 24 23 24 26 26 27 28 29 30 31 33 32 32 33 32 31 31 32 32 33 33 34 35 36 37 37 38 39 40 40 40 43 44 43 41 40 40 40 38 38 nan nan nan nan nan nan nan nan nan nan nan nan nan nan nan nan nan nan nan nan nan nan
12 13 15 15 14 13 12 11 11 10 10 21 25 27 29 30 33 29 24 21 22 24 25 24 24 23 23 26 28 29 29 29 35 39 36 34 33 33 33 34 34 33 32 35 38 39 37 41 42 42 41 45 45 43 44 44 46 44 44 nan nan nan nan nan nan nan nan nan nan nan nan nan nan nan nan nan nan nan nan nan nan nan nan nan nan
16 17 17 17 16 15 15 14 12 10 9 20 27 29 30 33 35 30 28 24 23 24 24 25 26 25 24 24 25 29 30 29 38 41 40 38 32 31 33 35 36 36 34 39 41 42 43 44 48 51 52 53 nan nan nan nan 43 42 43 nan nan nan nan nan nan nan nan nan nan nan nan nan nan nan nan nan nan nan nan nan nan nan nan nan nan
19 18 19 19 19 19 19 17 17 13 11 19 26 27 31 36 35 32 31 29 27 26 24 24 26 26 25 26 26 26 29 30 41 41 44 41 34 33 34 36 37 38 37 41 42 43 46 48 49 51 52 53 nan nan nan nan nan nan nan nan nan nan nan nan nan nan nan nan nan nan nan nan nan nan nan nan nan nan nan nan nan nan nan nan nan
21 21 21 20 20 21 20 20 22 20 17 21 28 27 30 34 33 31 32 31 31 29 27 26 26 27 28 31 32 28 27 34 45 43 46 44 37 35 35 36 38 40 39 43 42 46 46 48 49 51 50 nan nan nan nan nan nan nan nan nan nan nan nan nan nan nan nan nan nan nan nan nan nan nan nan nan nan nan nan nan nan nan nan nan nan
Wind_Direction
103 101 105 107 107 104 103 101 103 99 93 89 89 93 98 142 57 100 87 93 112 112 106 92 79 73 77 64 65 60 69 61 58 55 56 41 38 12 14 9 10 21 28 26 32 29 28 28 24 24 27 25 13 12 2 242 257 260 192 269 265 285 288 287 285 287 288 289 286 286 287 284 283 291 292 295 294 296 300 303 306 309 308 324 341
109 113 109 109 108 103 100 97 94 92 89 89 91 90 88 62 137 72 94 90 91 93 88 85 81 71 75 73 65 nan nan 55 54 63 55 47 43 12 12 12 11 23 26 28 37 40 34 28 29 21 25 31 21 9 14 2 360 26 275 155 279 246 278 282 280 281 285 289 287 287 288 290 289 286 288 291 291 290 298 305 311 318 328 337 338
119 112 110 106 103 103 100 100 88 83 84 84 83 98 99 76 83 98 80 98 95 85 74 87 78 63 57 74 nan nan nan 68 nan nan 45 46 52 20 18 11 20 17 22 28 26 33 41 30 49 29 21 33 30 34 26 32 24 19 7 11 330 241 217 234 278 286 287 291 294 294 298 301 300 296 293 288 282 283 284 292 302 309 316 322 326
121 114 108 102 103 99 94 91 96 91 82 88 96 94 94 94 70 73 80 90 100 101 84 83 80 63 54 74 70 nan nan nan nan nan nan 65 51 26 15 18 12 20 17 22 24 32 28 22 31 28 19 15 8 52 41 40 44 22 12 6 357 20 307 352 247 258 282 287 307 309 302 294 297 300 300 295 292 288 285 287 286 290 279 286 305
116 109 105 100 99 99 96 87 82 84 77 75 74 70 66 57 5 57 66 74 98 118 97 86 73 81 86 64 79 38 nan nan nan nan nan 7 22 24 12 6 17 13 10 16 21 31 27 22 19 21 13 16 13 34 39 43 43 40 42 24 0 341 346 353 340 303 292 312 327 331 324 326 322 315 310 306 307 299 286 273 270 276 293 302 301
115 108 105 99 95 92 95 92 86 79 71 58 54 48 65 92 84 53 47 85 69 123 136 118 122 81 85 88 83 21 nan nan nan nan nan 19 337 7 1 1 11 15 8 12 19 22 21 13 18 5 9 14 34 37 30 40 46 26 23 44 24 9 10 14 7 348 334 335 337 334 280 300 315 310 310 301 297 297 291 278 262 254 261 277 294
112 112 104 104 95 86 78 74 70 73 63 23 47 38 68 63 20 97 97 61 229 313 55 122 124 122 45 44 123 306 284 nan nan 359 nan 346 344 330 349 4 359 360 7 353 11 12 14 11 7 7 4 10 30 41 27 35 40 21 15 33 28 25 30 25 13 357 345 343 340 324 316 321 318 324 332 327 293 262 254 265 254 243 237 238 245
112 110 109 97 88 76 59 49 33 46 31 8 20 25 35 81 86 84 100 178 187 206 261 89 145 144 233 8 326 341 313 283 329 nan nan 346 329 326 339 344 352 349 0 357 357 346 360 1 2 0 1 4 14 30 11 30 40 26 21 20 19 21 33 30 25 11 350 343 339 336 336 342 342 336 347 355 348 316 264 242 251 253 254 253 256
114 111 107 94 83 69 52 29 21 25 13 12 20 25 33 43 36 88 131 158 195 242 296 307 342 310 348 336 283 276 264 287 311 310 308 326 326 331 333 330 337 345 349 344 339 331 353 355 358 357 355 356 8 15 17 21 24 38 39 26 26 24 25 27 18 11 351 322 305 345 335 350 5 10 10 13 16 22 33 122 211 253 255 259 261
115 109 102 95 83 70 60 21 23 19 21 21 25 29 40 57 64 62 101 122 111 308 297 296 285 307 312 301 277 287 284 306 300 324 323 320 316 326 328 328 332 330 334 326 330 330 339 352 354 349 350 353 358 6 11 10 10 17 32 21 24 31 34 24 17 10 320 301 67 69 16 34 37 30 21 21 28 32 29 30 40 337 296 284 282
113 98 93 80 66 61 57 40 38 33 40 45 37 39 57 66 68 62 57 93 106 85 279 274 300 305 315 308 296 307 298 303 321 317 321 328 320 339 325 325 327 326 325 334 325 327 329 334 338 338 350 349 346 353 353 360 6 8 10 8 11 31 29 15 6 1 333 332 357 40 40 27 27 24 19 22 28 32 31 22 2 339 326 318 314
108 88 75 73 67 57 55 51 55 57 60 62 61 57 58 65 66 59 62 75 68 45 28 327 337 313 304 321 325 327 340 319 nan 334 329 336 335 337 329 330 322 318 321 324 322 320 325 331 336 334 328 341 337 341 345 348 342 348 349 357 359 7 12 6 335 321 329 0 1 12 12 21 31 25 22 28 29 29 30 24 8 349 343 334 332
101 77 63 54 59 62 61 65 69 68 68 70 69 71 65 67 67 58 62 66 57 43 39 28 8 4 340 14 341 358 349 346 8 nan 336 340 334 339 331 328 320 324 323 317 318 317 323 328 330 328 328 328 330 332 327 335 338 340 341 339 344 343 337 333 327 325 318 352 17 19 3 14 23 19 17 19 22 22 18 1 356 348 347 345 341
91 68 59 51 53 58 63 72 71 72 69 70 73 68 66 66 61 58 57 61 46 44 15 24 14 16 1 352 356 341 344 358 nan nan nan nan nan 341 328 nan nan nan 324 324 324 325 323 324 324 323 323 327 325 326 333 336 324 313 313 320 326 326 316 322 314 307 316 311 335 0 355 357 6 8 8 13 17 12 6 355 349 344 335 329 333
79 58 56 51 58 63 66 68 67 68 62 61 64 62 64 63 56 60 56 42 42 25 13 42 21 1 350 4 nan 352 331 nan nan nan nan nan nan nan 338 nan 323 334 nan nan nan nan 324 323 322 320 321 321 323 324 317 309 304 309 308 304 304 305 304 304 310 313 310 318 326 334 338 332 331 334 348 348 341 340 346 341 339 341 333 324 329
60 50 44 45 47 57 61 65 56 53 52 55 53 58 58 57 50 44 54 55 34 14 18 19 42 353 11 nan 340 nan 346 nan nan nan nan nan nan nan 332 347 337 340 nan nan nan nan nan 330 328 326 326 326 329 329 322 316 314 312 310 309 311 304 294 295 293 295 298 301 305 308 309 310 315 316 311 308 312 316 323 317 313 310 311 309 309
54 42 38 32 37 46 56 60 56 44 48 50 50 57 56 54 46 47 46 56 52 1 15 10 24 32 23 nan nan nan nan nan nan 349 nan nan nan nan nan 3 nan 346 348 nan nan nan nan 332 337 336 337 341 340 339 335 333 329 324 318 nan 309 310 302 295 294 292 293 296 299 301 303 304 304 304 301 298 293 291 289 289 289 289 292 291 288
39 38 31 29 26 35 42 49 48 44 41 46 49 57 55 57 47 52 38 32 53 33 8 16 21 21 38 53 66 53 nan 337 nan 351 nan nan nan nan 349 8 nan 344 356 346 nan nan nan nan 347 348 348 345 347 344 339 nan nan nan nan nan 317 310 309 306 303 301 299 300 301 302 301 300 298 297 296 296 296 293 292 289 288 287 287 287 287
25 27 28 28 29 28 32 35 45 47 39 38 38 47 42 37 38 33 33 19 26 30 31 16 11 16 22 nan nan nan 359 4 nan 335 357 nan nan nan nan 8 nan nan 2 nan nan nan nan nan nan 349 345 347 345 nan nan nan 332 nan 320 325 331 324 nan 313 307 nan nan nan 303 304 304 303 nan 296 292 291 288 nan 290 291 291 289 286 285 285
14 15 22 22 20 24 25 30 38 44 38 38 42 47 45 26 26 27 33 31 26 27 24 14 1 10 10 nan 10 19 1 28 5 9 353 351 nan nan nan nan nan nan nan nan nan nan nan 352 349 353 348 342 347 350 342 340 342 344 342 341 339 339 334 332 329 325 320 315 312 310 309 307 307 306 303 nan nan nan nan nan nan nan 286 283 280
351 9 7 13 11 17 21 27 31 36 35 41 38 33 33 21 14 20 26 24 21 21 16 13 8 358 352 4 11 2 4 nan 357 8 13 nan nan nan nan nan nan nan nan nan nan nan nan nan nan 350 342 343 347 348 346 341 342 340 334 339 345 345 345 344 nan nan nan 336 331 nan nan nan 314 nan 308 nan nan 297 292 287 284 283 283 283 281
328 353 353 4 9 11 18 21 26 33 37 43 32 25 11 3 9 21 19 21 13 13 12 7 10 9 352 1 10 15 10 7 4 5 9 14 nan nan nan nan 4 nan nan nan nan nan nan nan nan nan nan nan nan 344 341 342 333 nan 324 332 344 351 351 352 352 351 nan nan 343 nan nan nan nan nan nan nan nan nan 297 292 287 282 279 277 278
307 316 344 359 10 13 18 16 18 24 29 30 22 13 352 346 341 354 15 18 12 13 14 9 8 21 10 12 15 18 14 16 14 nan nan 1 13 nan nan nan nan nan 342 nan nan nan nan nan nan nan 332 nan nan nan nan nan nan 318 319 335 341 348 349 351 353 353 349 nan nan nan nan nan nan nan nan nan nan nan nan nan nan nan nan nan nan
281 294 326 2 4 10 17 20 12 12 16 12 10 351 325 321 317 324 0 15 17 21 22 14 20 18 31 17 20 22 12 17 14 15 18 26 11 13 nan 328 nan nan 323 340 344 nan nan nan nan nan nan nan nan nan nan 333 329 322 344 340 345 344 346 348 348 349 348 343 339 335 nan nan nan nan nan nan nan nan nan nan nan nan nan nan 275
281 297 323 351 351 355 3 11 9 0 1 3 359 347 324 308 308 323 354 11 21 28 28 27 25 24 23 24 14 15 8 4 nan nan 6 9 15 16 16 nan 346 nan 336 nan 339 nan nan nan nan nan nan nan nan 333 336 nan nan 333 348 332 344 343 344 344 343 342 340 336 333 330 328 327 324 nan 320 nan nan nan nan nan nan nan 285 280 277
285 299 309 331 339 344 351 1 359 348 351 359 358 344 326 315 310 317 349 12 26 29 35 32 26 23 22 18 10 7 6 359 nan nan nan nan nan nan 4 353 nan nan 322 331 331 nan nan nan nan nan nan nan nan nan 342 nan nan 326 341 343 338 343 343 341 341 339 335 332 330 329 327 325 322 318 315 314 313 312 310 307 302 297 291 283 277
284 287 297 306 325 329 342 352 351 350 355 359 352 342 322 314 304 314 336 1 24 26 25 25 17 15 13 12 10 4 0 355 355 352 nan nan nan 350 349 348 nan nan nan 330 nan nan nan nan nan nan nan 342 nan nan 345 nan nan 322 334 339 339 335 341 338 338 334 331 329 327 327 325 323 319 316 312 309 307 306 306 306 304 300 295 289 282
281 285 292 299 306 320 331 345 347 345 346 354 357 333 315 309 303 310 329 343 15 19 14 14 12 9 10 8 7 9 355 355 354 352 354 356 347 343 338 342 342 337 nan nan nan nan nan nan nan nan 334 340 339 342 344 341 nan 322 335 340 336 331 334 333 331 329 327 325 323 323 321 318 317 314 310 307 305 304 304 304 303 300 296 292 286
278 285 292 295 299 310 321 338 341 341 341 341 347 342 316 308 309 314 321 343 359 15 7 7 11 7 7 9 8 9 2 354 356 357 354 354 353 349 348 347 340 341 332 332 333 nan nan nan nan 328 335 335 339 340 337 342 330 327 339 337 330 330 321 326 324 324 323 321 319 319 318 317 316 315 311 309 306 305 303 301 299 297 295 293 290
275 279 289 298 297 305 307 319 331 339 341 333 331 333 319 308 310 311 313 323 349 8 3 6 10 10 9 7 8 7 3 360 359 4 357 357 358 353 352 351 346 344 335 333 327 331 nan nan nan 329 333 336 339 340 338 337 315 335 332 331 328 318 314 321 nan nan nan nan nan nan nan nan nan nan 312 309 306 303 301 299 297 295 294 292 289
278 281 287 294 294 296 299 309 319 333 336 334 321 313 317 308 306 305 308 311 328 3 353 1 8 8 8 7 3 5 1 1 2 2 1 359 1 359 355 351 348 346 341 334 336 329 nan nan nan nan 325 332 338 333 333 330 323 nan 330 325 325 310 nan 323 nan nan nan nan nan nan nan nan nan nan nan 310 306 302 298 296 293 291 289 286 283
284 289 288 293 293 295 294 303 313 325 332 331 323 312 308 306 304 303 304 310 325 350 346 349 359 0 2 4 2 1 359 360 360 1 359 360 1 359 357 352 349 348 342 340 340 332 328 nan 327 329 342 331 329 331 330 324 317 nan 329 327 317 316 326 327 nan nan nan nan nan nan nan nan nan nan nan nan 308 303 299 294 290 287 284 282 282
284 289 292 294 293 290 293 295 306 310 322 326 318 309 304 305 302 301 299 305 317 330 329 342 351 352 355 359 1 1 0 360 355 354 357 357 360 359 354 352 352 347 345 342 342 339 335 329 330 331 322 324 327 325 325 325 322 322 nan 326 324 325 324 323 322 327 nan nan nan nan nan nan nan nan nan nan 312 307 300 296 293 289 285 283 281
284 288 292 291 291 292 291 293 295 300 307 317 319 310 303 301 303 293 298 305 311 321 318 334 341 339 345 353 359 359 358 359 353 351 353 354 355 356 353 352 350 347 344 344 342 339 337 326 331 327 322 322 322 318 321 324 324 321 324 324 323 324 322 322 323 324 331 330 nan nan nan nan nan nan nan nan nan 307 304 300 nan nan nan nan nan
282 285 288 291 290 292 290 288 290 293 299 308 314 313 303 300 300 297 296 301 307 313 317 328 335 334 339 346 354 356 352 354 352 350 351 354 353 354 352 347 347 344 341 343 342 341 338 332 326 325 323 319 321 317 323 325 323 322 324 324 324 322 321 323 325 324 328 330 nan nan nan nan nan nan nan nan nan nan nan nan nan nan nan nan nan
284 283 286 288 289 290 290 289 289 287 291 295 305 311 305 298 295 296 294 296 299 304 311 322 329 331 335 340 350 354 351 350 348 347 348 349 349 347 347 345 344 344 340 338 342 340 336 333 326 324 317 317 321 322 320 321 325 324 324 322 322 321 322 325 327 329 326 329 328 nan nan nan nan nan nan nan nan nan nan nan nan nan nan nan nan
291 284 282 283 285 287 286 288 285 283 284 288 296 304 299 292 291 291 293 292 295 298 305 314 321 326 331 338 342 347 347 346 343 345 343 344 342 342 343 344 344 342 340 339 339 340 339 336 329 323 320 321 320 321 322 324 325 325 323 324 323 323 325 327 328 329 324 329 330 nan nan nan nan nan nan nan nan nan nan nan nan nan nan nan nan
304 295 288 283 282 285 283 282 282 280 278 280 289 297 299 294 288 289 289 290 291 295 299 307 314 319 325 332 335 339 343 343 341 340 338 340 340 344 346 344 342 340 342 341 337 338 338 336 331 327 323 323 321 323 323 324 323 323 323 323 324 326 327 329 329 330 331 329 329 329 330 331 nan nan nan nan nan nan nan nan nan nan nan nan nan
335 322 305 292 281 280 280 279 280 279 279 280 284 292 295 293 290 288 287 287 287 288 293 301 308 314 321 324 330 335 337 339 339 337 334 338 341 348 347 344 341 340 339 338 336 337 337 335 333 328 324 322 323 323 323 322 323 323 322 324 326 326 329 330 330 331 332 332 332 332 332 327 319 326 nan nan nan nan nan nan nan nan nan nan nan
8 0 347 320 294 281 279 279 279 277 279 280 284 289 292 292 288 286 283 282 285 286 288 293 299 307 315 321 327 330 333 334 335 334 333 333 336 345 344 341 340 340 339 336 336 336 336 335 332 328 325 323 322 321 319 320 322 323 324 325 328 328 330 330 331 332 332 333 335 334 332 333 332 331 326 326 327 326 327 nan nan nan nan nan nan
11 14 9 358 336 309 291 285 282 279 278 280 280 285 288 292 288 284 282 281 281 282 284 288 292 299 305 312 321 327 327 329 332 331 332 327 330 338 341 340 339 338 337 336 336 336 334 332 330 326 323 322 322 321 321 321 324 324 323 326 328 329 330 331 332 335 336 336 335 334 331 328 326 324 323 322 321 327 332 335 328 333 nan nan nan
18 13 8 4 1 347 329 311 295 282 277 273 281 293 289 283 285 277 274 276 278 279 281 283 288 295 302 305 311 324 320 322 323 326 327 324 331 336 338 339 337 336 336 338 338 338 335 331 328 326 324 324 324 323 322 322 322 323 325 327 330 330 329 330 334 339 337 336 336 334 331 328 326 324 323 324 322 325 321 324 307 299 nan nan nan
20 11 8 7 4 354 347 336 326 305 287 276 289 291 293 290 281 279 277 275 278 280 282 284 285 289 292 299 302 308 312 311 316 321 323 323 328 334 333 338 337 334 333 336 339 342 336 331 328 328 326 325 323 320 nan 321 323 325 327 327 330 329 331 nan nan 339 337 336 336 335 332 327 324 324 323 324 324 322 322 nan nan nan nan nan nan
4 3 7 9 2 354 343 342 337 325 314 301 296 297 295 295 289 278 275 274 276 281 284 286 283 284 288 292 296 298 307 313 311 312 318 321 324 331 333 332 334 334 332 332 336 339 337 335 333 331 329 325 321 319 321 324 nan 324 326 328 328 329 332 nan nan nan 335 334 335 336 332 330 328 326 326 326 325 324 nan nan nan nan nan nan nan
342 352 358 358 357 354 348 343 339 330 322 306 304 301 299 299 300 292 276 276 277 280 284 286 285 284 285 287 290 294 294 304 305 309 313 315 320 329 335 331 327 327 327 330 327 327 332 337 336 334 329 323 322 321 323 323 321 325 nan nan 328 330 333 338 nan nan 337 335 337 nan nan nan nan nan 329 325 nan nan nan nan nan nan nan nan nan
329 337 342 343 341 345 344 342 336 331 332 306 310 304 303 303 302 296 281 278 276 277 282 285 284 287 289 287 288 290 292 296 302 306 306 310 313 318 323 325 325 324 325 328 331 337 335 332 334 335 331 326 323 321 320 320 324 326 nan nan nan nan 334 338 337 338 339 nan nan nan nan nan nan nan nan nan nan nan nan 323 nan nan nan nan nan
317 323 323 320 324 327 329 330 328 331 333 317 315 310 307 306 305 297 284 278 275 278 282 286 287 288 289 288 288 289 291 294 297 303 304 306 308 313 320 324 325 323 324 327 331 333 334 336 335 334 331 326 323 321 319 321 323 322 322 321 321 324 329 nan nan nan nan nan nan nan nan nan nan nan nan nan nan nan nan nan nan nan nan nan nan
293 300 303 302 311 313 316 331 322 331 330 320 318 316 312 307 302 288 289 287 284 283 284 286 287 286 288 287 286 287 289 293 295 301 301 301 306 309 315 318 318 318 320 324 327 331 328 331 332 332 330 320 314 317 316 320 320 319 321 nan nan nan nan nan nan nan nan nan nan nan nan nan nan nan nan nan nan nan nan nan nan nan nan nan nan
290 292 293 294 290 295 304 304 309 311 312 308 315 317 314 310 297 291 294 292 288 287 284 285 284 285 286 287 286 282 286 290 292 299 299 300 304 309 311 311 310 313 317 302 297 301 301 301 303 302 305 309 nan nan nan nan 311 317 322 nan nan nan nan nan nan nan nan nan nan nan nan nan nan nan nan nan nan nan nan nan nan nan nan nan nan
289 288 282 279 285 290 295 300 298 297 291 291 304 310 311 308 306 299 295 294 291 287 284 283 280 281 284 286 283 285 286 287 290 297 296 298 300 304 307 308 311 312 311 306 308 301 298 299 301 303 306 309 nan nan nan nan nan nan nan nan nan nan nan nan nan nan nan nan nan nan nan nan nan nan nan nan nan nan nan nan nan nan nan nan nan
278 274 275 276 281 286 295 301 295 298 289 278 287 295 302 303 301 294 296 294 294 294 291 288 287 284 282 281 288 287 288 283 290 293 294 296 297 301 302 304 308 309 310 308 311 311 309 309 308 308 309 nan nan nan nan nan nan nan nan nan nan nan nan nan nan nan nan nan nan nan nan nan nan nan nan nan nan nan nan nan nan nan nan nan nan